| time (UTC) | temp F | wind direction | speed knots | gust knots | rain 1hr in | rain 24hr in | rain mn in | humidity % | barometer mb |
| 20260508162005 | 64 | 179 | 3.5 | 8.7 | 0.00 | 0.00 | 0.00 | 30 | 1005.7 |
| 20260508161005 | 63 | 209 | 1.7 | 2.6 | 0.00 | 0.00 | 0.00 | 30 | 1005.8 |
| 20260508160506 | 63 | 209 | 2.6 | 11.3 | 0.00 | 0.00 | 0.00 | 33 | 1005.9 |
| 20260508160005 | 63 | 179 | 6.1 | 11.3 | 0.00 | 0.00 | 0.00 | 31 | 1005.8 |
| 20260508155006 | 63 | 179 | 2.6 | 7.0 | 0.00 | 0.00 | 0.00 | 33 | 1006.0 |
| 20260508154505 | 63 | 205 | 2.6 | 7.0 | 0.00 | 0.00 | 0.00 | 33 | 1005.9 |
| 20260508154005 | 63 | 169 | 4.3 | 10.4 | 0.00 | 0.00 | 0.00 | 32 | 1006.0 |
| 20260508153505 | 62 | 180 | 3.5 | 10.4 | 0.00 | 0.00 | 0.00 | 34 | 1006.1 |
| 20260508153005 | 62 | 180 | 2.6 | 10.4 | 0.00 | 0.00 | 0.00 | 32 | 1006.2 |
| 20260508152006 | 62 | 177 | 2.6 | 7.0 | 0.00 | 0.00 | 0.00 | 34 | 1006.3 |
| 20260508151506 | 61 | 181 | 4.3 | 7.8 | 0.00 | 0.00 | 0.00 | 35 | 1006.4 |
| 20260508151005 | 61 | 171 | 4.3 | 7.8 | 0.00 | 0.00 | 0.00 | 34 | 1006.5 |
| 20260508150506 | 61 | 182 | 4.3 | 10.4 | 0.00 | 0.00 | 0.00 | 34 | 1006.6 |
| 20260508150006 | 61 | 168 | 5.2 | 10.4 | 0.00 | 0.00 | 0.00 | 32 | 1006.7 |
| 20260508145005 | 60 | 212 | 4.3 | 8.7 | 0.00 | 0.00 | 0.00 | 35 | 1006.8 |
| 20260508144005 | 59 | 181 | 4.3 | 10.4 | 0.00 | 0.00 | 0.00 | 36 | 1006.9 |
| 20260508143506 | 58 | 173 | 5.2 | 11.3 | 0.00 | 0.00 | 0.00 | 35 | 1006.9 |
| 20260508143006 | 58 | 181 | 4.3 | 8.7 | 0.00 | 0.00 | 0.00 | 36 | 1006.9 |
| 20260508142505 | 57 | 177 | 5.2 | 10.4 | 0.00 | 0.00 | 0.00 | 36 | 1007.0 |
| 20260508142005 | 57 | 184 | 4.3 | 10.4 | 0.00 | 0.00 | 0.00 | 39 | 1007.0 |
| 20260508141505 | 56 | 178 | 4.3 | 10.4 | 0.00 | 0.00 | 0.00 | 39 | 1007.1 |
| 20260508141005 | 56 | 183 | 3.5 | 10.4 | 0.00 | 0.00 | 0.00 | 39 | 1007.1 |
| 20260508140505 | 55 | 177 | 4.3 | 8.7 | 0.00 | 0.00 | 0.00 | 39 | 1007.1 |
| 20260508140005 | 55 | 185 | 4.3 | 8.7 | 0.00 | 0.00 | 0.00 | 40 | 1007.1 |
| 20260508135505 | 54 | 176 | 4.3 | 10.4 | 0.00 | 0.00 | 0.00 | 40 | 1007.2 |
| 20260508135005 | 54 | 165 | 5.2 | 10.4 | 0.00 | 0.00 | 0.00 | 40 | 1007.2 |
| 20260508134505 | 53 | 186 | 4.3 | 8.7 | 0.00 | 0.00 | 0.00 | 42 | 1007.2 |
| 20260508134005 | 53 | 172 | 4.3 | 8.7 | 0.00 | 0.00 | 0.00 | 43 | 1007.2 |
| 20260508133505 | 52 | 185 | 2.6 | 7.8 | 0.00 | 0.00 | 0.00 | 45 | 1007.2 |
| 20260508133005 | 52 | 175 | 4.3 | 7.0 | 0.00 | 0.00 | 0.00 | 45 | 1007.3 |
| 20260508132505 | 51 | 180 | 3.5 | 7.0 | 0.00 | 0.00 | 0.00 | 47 | 1007.4 |
| 20260508132005 | 50 | 168 | 2.6 | 7.0 | 0.00 | 0.00 | 0.00 | 47 | 1007.3 |
| 20260508131505 | 50 | 183 | 3.5 | 7.8 | 0.00 | 0.00 | 0.00 | 48 | 1007.4 |
| 20260508131006 | 49 | 170 | 2.6 | 6.1 | 0.00 | 0.00 | 0.00 | 49 | 1007.4 |
| 20260508130505 | 48 | 172 | 2.6 | 6.1 | 0.00 | 0.00 | 0.00 | 51 | 1007.5 |
| 20260508130005 | 47 | 176 | 2.6 | 5.2 | 0.00 | 0.00 | 0.00 | 52 | 1007.5 |
| 20260508125514 | 47 | 147 | 1.7 | 4.3 | 0.00 | 0.00 | 0.00 | 54 | 1007.5 |
| 20260508125006 | 46 | 152 | 1.7 | 2.6 | 0.00 | 0.00 | 0.00 | 54 | 1007.5 |
| 20260508124505 | 45 | 165 | 1.7 | 2.6 | 0.00 | 0.00 | 0.00 | 54 | 1007.5 |
| 20260508124005 | 45 | 165 | 0.9 | 2.6 | 0.00 | 0.00 | 0.00 | 55 | 1007.5 |
| 20260508123505 | 44 | 165 | 0.9 | 2.6 | 0.00 | 0.00 | 0.00 | 55 | 1007.5 |
| 20260508123005 | 44 | 165 | 1.7 | 5.2 | 0.00 | 0.00 | 0.00 | 55 | 1007.5 |
| 20260508122505 | 43 | 161 | 0.9 | 5.2 | 0.00 | 0.00 | 0.00 | 57 | 1007.5 |
| 20260508122005 | 42 | 155 | 1.7 | 2.6 | 0.00 | 0.00 | 0.00 | 57 | 1007.5 |
| 20260508121505 | 42 | 155 | 1.7 | 2.6 | 0.00 | 0.00 | 0.00 | 57 | 1007.5 |
| 20260508121005 | 41 | 155 | 0.9 | 2.6 | 0.00 | 0.00 | 0.00 | 59 | 1007.4 |
| 20260508120505 | 41 | 155 | 0.9 | 2.6 | 0.00 | 0.00 | 0.00 | 59 | 1007.4 |
| 20260508120005 | 40 | 155 | 1.7 | 2.6 | 0.00 | 0.00 | 0.00 | 59 | 1007.4 |
| 20260508115505 | 40 | 155 | 0.9 | 2.6 | 0.00 | 0.00 | 0.00 | 59 | 1007.3 |
| 20260508115005 | 39 | 155 | 0.9 | 2.6 | 0.00 | 0.00 | 0.00 | 59 | 1007.4 |
| 20260508114505 | 39 | 155 | 0.9 | 2.6 | 0.00 | 0.00 | 0.00 | 61 | 1007.4 |
| 20260508114006 | 39 | 155 | 0.9 | 2.6 | 0.00 | 0.00 | 0.00 | 60 | 1007.4 |
| 20260508113505 | 39 | 155 | 0.9 | 2.6 | 0.00 | 0.00 | 0.00 | 61 | 1007.4 |
| 20260508113006 | 39 | 155 | 0.9 | 2.6 | 0.00 | 0.00 | 0.00 | 61 | 1007.5 |
| 20260508112505 | 39 | 155 | 0.9 | 1.7 | 0.00 | 0.00 | 0.00 | 62 | 1007.4 |
| 20260508112005 | 39 | 155 | 0.9 | 1.7 | 0.00 | 0.00 | 0.00 | 60 | 1007.4 |
| 20260508111505 | 39 | 155 | 0.9 | 1.7 | 0.00 | 0.00 | 0.00 | 61 | 1007.4 |
| 20260508111006 | 39 | 155 | 0.0 | 1.7 | 0.00 | 0.00 | 0.00 | 59 | 1007.4 |
| 20260508110505 | 39 | 155 | 0.0 | 1.7 | 0.00 | 0.00 | 0.00 | 59 | 1007.5 |
| 20260508105505 | 39 | 155 | 0.0 | 0.9 | 0.00 | 0.00 | 0.00 | 57 | 1007.5 |
| 20260508105005 | 39 | 155 | 0.0 | 1.7 | 0.00 | 0.00 | 0.00 | 57 | 1007.5 |
| 20260508104504 | 40 | 155 | 0.9 | 1.7 | 0.00 | 0.00 | 0.00 | 58 | 1007.5 |
| 20260508104005 | 40 | 155 | 0.0 | 1.7 | 0.00 | 0.00 | 0.00 | 58 | 1007.4 |
| 20260508103506 | 40 | 155 | 0.9 | 2.6 | 0.00 | 0.00 | 0.00 | 58 | 1007.5 |
| 20260508103005 | 40 | 155 | 0.9 | 1.7 | 0.00 | 0.00 | 0.00 | 58 | 1007.4 |
| 20260508102505 | 40 | 155 | 0.9 | 1.7 | 0.00 | 0.00 | 0.00 | 57 | 1007.5 |
| 20260508102005 | 41 | 155 | 0.9 | 1.7 | 0.00 | 0.00 | 0.00 | 58 | 1007.5 |
| 20260508101505 | 41 | 155 | 0.9 | 2.6 | 0.00 | 0.00 | 0.00 | 57 | 1007.5 |
| 20260508101005 | 40 | 155 | 0.9 | 2.6 | 0.00 | 0.00 | 0.00 | 56 | 1007.5 |
| 20260508100505 | 40 | 156 | 0.9 | 2.6 | 0.00 | 0.00 | 0.00 | 58 | 1007.6 |
| 20260508100005 | 40 | 150 | 0.9 | 2.6 | 0.00 | 0.00 | 0.00 | 58 | 1007.6 |
| 20260508095505 | 40 | 150 | 1.7 | 2.6 | 0.00 | 0.00 | 0.00 | 57 | 1007.7 |
| 20260508095005 | 40 | 150 | 0.9 | 2.6 | 0.00 | 0.00 | 0.00 | 58 | 1007.7 |
| 20260508094506 | 40 | 148 | 1.7 | 2.6 | 0.00 | 0.00 | 0.00 | 58 | 1007.7 |
| 20260508094005 | 39 | 148 | 0.9 | 2.6 | 0.00 | 0.00 | 0.00 | 58 | 1007.7 |
| 20260508093507 | 39 | 148 | 0.9 | 2.6 | 0.00 | 0.00 | 0.00 | 59 | 1007.7 |
| 20260508093007 | 39 | 148 | 0.9 | 2.6 | 0.00 | 0.00 | 0.00 | 60 | 1007.7 |
| 20260508092006 | 38 | 148 | 0.9 | 2.6 | 0.00 | 0.00 | 0.00 | 64 | 1007.7 |
| 20260508090507 | 38 | 148 | 0.0 | 0.9 | 0.00 | 0.00 | 0.00 | 64 | 1007.7 |
| 20260508090007 | 38 | 148 | 0.0 | 0.0 | 0.00 | 0.00 | 0.00 | 65 | 1007.8 |
| 20260508085006 | 38 | 148 | 0.0 | 0.9 | 0.00 | 0.00 | 0.00 | 64 | 1007.9 |
| 20260508084506 | 38 | 148 | 0.0 | 0.9 | 0.00 | 0.00 | 0.00 | 66 | 1007.9 |
| 20260508084006 | 38 | 148 | 0.0 | 0.9 | 0.00 | 0.00 | 0.00 | 67 | 1007.9 |
| 20260508083506 | 38 | 148 | 0.0 | 0.9 | 0.00 | 0.00 | 0.00 | 67 | 1007.9 |
| 20260508083009 | 38 | 148 | 0.0 | 0.0 | 0.00 | 0.00 | 0.00 | 65 | 1007.9 |
| 20260508082506 | 38 | 148 | 0.0 | 0.0 | 0.00 | 0.00 | 0.00 | 63 | 1007.9 |
| 20260508082006 | 38 | 148 | 0.0 | 0.0 | 0.00 | 0.00 | 0.00 | 63 | 1008.0 |
| 20260508081507 | 37 | 148 | 0.0 | 1.7 | 0.00 | 0.00 | 0.00 | 66 | 1008.1 |
| 20260508081007 | 37 | 146 | 0.0 | 1.7 | 0.00 | 0.00 | 0.00 | 67 | 1008.1 |
| 20260508080506 | 37 | 306 | 0.0 | 1.7 | 0.00 | 0.00 | 0.00 | 69 | 1008.2 |
| 20260508080006 | 37 | 306 | 0.0 | 0.0 | 0.00 | 0.00 | 0.00 | 69 | 1008.2 |
| 20260508075506 | 37 | 306 | 0.0 | 0.0 | 0.00 | 0.00 | 0.00 | 70 | 1008.2 |
| 20260508075006 | 37 | 306 | 0.0 | 0.0 | 0.00 | 0.00 | 0.00 | 70 | 1008.2 |
| 20260508074506 | 37 | 306 | 0.0 | 0.0 | 0.00 | 0.00 | 0.00 | 70 | 1008.2 |
| 20260508074007 | 37 | 306 | 0.0 | 0.0 | 0.00 | 0.00 | 0.00 | 71 | 1008.2 |
| 20260508073506 | 37 | 306 | 0.0 | 0.0 | 0.00 | 0.00 | 0.00 | 70 | 1008.3 |
| 20260508073006 | 37 | 306 | 0.0 | 0.0 | 0.00 | 0.00 | 0.00 | 71 | 1008.3 |
| 20260508072506 | 37 | 306 | 0.0 | 0.0 | 0.00 | 0.00 | 0.00 | 73 | 1008.4 |
| 20260508072006 | 37 | 306 | 0.0 | 0.0 | 0.00 | 0.00 | 0.00 | 72 | 1008.4 |
| 20260508071507 | 37 | 306 | 0.0 | 0.0 | 0.00 | 0.00 | 0.00 | 70 | 1008.4 |
| 20260508071007 | 38 | 306 | 0.0 | 0.0 | 0.00 | 0.00 | 0.00 | 66 | 1008.4 |
| 20260508070506 | 38 | 306 | 0.0 | 0.0 | 0.00 | 0.00 | 0.00 | 65 | 1008.5 |
| 20260508070007 | 38 | 306 | 0.0 | 0.0 | 0.00 | 0.00 | 0.00 | 65 | 1008.5 |
| 20260508065506 | 38 | 306 | 0.0 | 0.0 | 0.00 | 0.00 | 0.00 | 66 | 1008.6 |
| 20260508065006 | 38 | 306 | 0.0 | 0.0 | 0.00 | 0.00 | 0.00 | 65 | 1008.6 |
| 20260508064006 | 38 | 306 | 0.0 | 0.0 | 0.00 | 0.00 | 0.00 | 66 | 1008.6 |
| 20260508063506 | 38 | 306 | 0.0 | 0.0 | 0.00 | 0.00 | 0.00 | 67 | 1008.7 |
| 20260508062006 | 38 | 306 | 0.0 | 0.0 | 0.00 | 0.00 | 0.00 | 67 | 1008.8 |
| 20260508061506 | 38 | 306 | 0.0 | 0.0 | 0.00 | 0.00 | 0.00 | 69 | 1008.8 |
| 20260508061007 | 39 | 306 | 0.0 | 0.0 | 0.00 | 0.00 | 0.00 | 71 | 1008.9 |
| 20260508060006 | 39 | 306 | 0.0 | 0.0 | 0.00 | 0.00 | 0.00 | 71 | 1008.9 |
| 20260508055506 | 39 | 306 | 0.0 | 0.0 | 0.00 | 0.00 | 0.00 | 70 | 1009.0 |
| 20260508055007 | 40 | 306 | 0.0 | 0.0 | 0.00 | 0.00 | 0.00 | 67 | 1008.9 |
| 20260508054506 | 40 | 306 | 0.0 | 0.0 | 0.00 | 0.00 | 0.00 | 64 | 1009.0 |
| 20260508054007 | 40 | 306 | 0.0 | 0.0 | 0.00 | 0.00 | 0.00 | 63 | 1009.0 |
| 20260508052506 | 40 | 306 | 0.0 | 0.0 | 0.00 | 0.00 | 0.00 | 62 | 1009.2 |
| 20260508052006 | 40 | 306 | 0.0 | 0.0 | 0.00 | 0.00 | 0.00 | 64 | 1009.1 |
| 20260508051506 | 40 | 306 | 0.0 | 0.0 | 0.00 | 0.00 | 0.00 | 64 | 1009.2 |
| 20260508051006 | 40 | 306 | 0.0 | 0.0 | 0.00 | 0.00 | 0.00 | 61 | 1009.1 |
| 20260508050506 | 40 | 306 | 0.0 | 0.0 | 0.00 | 0.00 | 0.00 | 62 | 1009.2 |
| 20260508050006 | 40 | 306 | 0.0 | 0.0 | 0.00 | 0.00 | 0.00 | 62 | 1009.2 |
| 20260508045506 | 41 | 306 | 0.0 | 0.0 | 0.00 | 0.00 | 0.00 | 63 | 1009.3 |
| 20260508045006 | 41 | 306 | 0.0 | 0.0 | 0.00 | 0.00 | 0.00 | 62 | 1009.2 |
| 20260508044506 | 40 | 306 | 0.0 | 0.0 | 0.00 | 0.00 | 0.00 | 61 | 1009.2 |
| 20260508044006 | 41 | 306 | 0.0 | 0.0 | 0.00 | 0.00 | 0.00 | 57 | 1009.2 |
| 20260508043506 | 41 | 306 | 0.0 | 0.0 | 0.00 | 0.00 | 0.00 | 56 | 1009.2 |
| 20260508043014 | 41 | 306 | 0.0 | 0.0 | 0.00 | 0.00 | 0.00 | 55 | 1009.3 |
| 20260508042506 | 41 | 306 | 0.0 | 0.0 | 0.00 | 0.00 | 0.00 | 54 | 1009.2 |
| 20260508042007 | 41 | 306 | 0.0 | 0.0 | 0.00 | 0.00 | 0.00 | 54 | 1009.2 |
| 20260508041506 | 42 | 306 | 0.0 | 0.0 | 0.00 | 0.00 | 0.00 | 54 | 1009.2 |
| 20260508041006 | 42 | 306 | 0.0 | 0.0 | 0.00 | 0.00 | 0.00 | 53 | 1009.2 |
| 20260508040507 | 42 | 306 | 0.0 | 0.0 | 0.00 | 0.00 | 0.00 | 53 | 1009.3 |
| 20260508035506 | 43 | 306 | 0.0 | 0.0 | 0.00 | 0.00 | 0.00 | 53 | 1009.3 |
| 20260508035006 | 43 | 306 | 0.0 | 0.0 | 0.00 | 0.00 | 0.00 | 55 | 1009.3 |
| 20260508034506 | 44 | 306 | 0.0 | 0.0 | 0.00 | 0.00 | 0.00 | 57 | 1009.4 |
| 20260508033506 | 44 | 306 | 0.0 | 0.0 | 0.00 | 0.00 | 0.00 | 47 | 1009.3 |
| 20260508033006 | 44 | 306 | 0.0 | 0.0 | 0.00 | 0.00 | 0.00 | 46 | 1009.3 |
| 20260508032506 | 44 | 306 | 0.0 | 0.0 | 0.00 | 0.00 | 0.00 | 46 | 1009.3 |
| 20260508031506 | 45 | 306 | 0.0 | 0.0 | 0.00 | 0.00 | 0.00 | 45 | 1009.3 |
| 20260508025506 | 46 | 306 | 0.0 | 0.0 | 0.00 | 0.00 | 0.00 | 43 | 1009.2 |
| 20260508025006 | 46 | 306 | 0.0 | 0.0 | 0.00 | 0.00 | 0.00 | 42 | 1009.2 |
| 20260508024506 | 46 | 306 | 0.0 | 0.0 | 0.00 | 0.00 | 0.00 | 42 | 1009.2 |
| 20260508022506 | 48 | 306 | 0.0 | 0.0 | 0.00 | 0.00 | 0.00 | 39 | 1009.1 |
| 20260508022007 | 48 | 306 | 0.0 | 0.0 | 0.00 | 0.00 | 0.00 | 38 | 1008.9 |
| 20260508021506 | 49 | 306 | 0.0 | 0.0 | 0.00 | 0.00 | 0.00 | 38 | 1008.9 |
| 20260508021006 | 49 | 306 | 0.0 | 0.0 | 0.00 | 0.00 | 0.00 | 38 | 1008.9 |
| 20260508020506 | 49 | 306 | 0.0 | 0.0 | 0.00 | 0.00 | 0.00 | 38 | 1008.8 |
| 20260508020007 | 49 | 306 | 0.0 | 0.0 | 0.00 | 0.00 | 0.00 | 38 | 1008.8 |
| 20260508015506 | 50 | 306 | 0.0 | 0.0 | 0.00 | 0.00 | 0.00 | 37 | 1008.7 |
| 20260508015006 | 50 | 306 | 0.0 | 0.0 | 0.00 | 0.00 | 0.00 | 37 | 1008.7 |
| 20260508014506 | 51 | 306 | 0.0 | 0.0 | 0.00 | 0.00 | 0.00 | 37 | 1008.7 |
| 20260508014006 | 51 | 306 | 0.0 | 0.0 | 0.00 | 0.00 | 0.00 | 37 | 1008.6 |
| 20260508013507 | 51 | 306 | 0.0 | 0.0 | 0.00 | 0.00 | 0.00 | 35 | 1008.5 |
| 20260508012506 | 51 | 306 | 0.0 | 0.0 | 0.00 | 0.00 | 0.00 | 35 | 1008.5 |
| 20260508012006 | 52 | 306 | 0.0 | 0.0 | 0.00 | 0.00 | 0.00 | 36 | 1008.5 |
| 20260508011506 | 52 | 306 | 0.0 | 0.0 | 0.00 | 0.00 | 0.00 | 35 | 1008.5 |
| 20260508010506 | 52 | 306 | 0.0 | 0.0 | 0.00 | 0.00 | 0.00 | 37 | 1008.4 |
| 20260508010006 | 53 | 306 | 0.0 | 0.0 | 0.00 | 0.00 | 0.00 | 39 | 1008.4 |
| 20260508005506 | 53 | 306 | 0.0 | 0.0 | 0.00 | 0.00 | 0.00 | 37 | 1008.4 |
| 20260508005007 | 54 | 306 | 0.0 | 0.0 | 0.00 | 0.00 | 0.00 | 38 | 1008.5 |
| 20260508004505 | 54 | 306 | 0.0 | 0.0 | 0.00 | 0.00 | 0.00 | 35 | 1008.4 |
| 20260508004006 | 54 | 306 | 0.0 | 0.0 | 0.00 | 0.00 | 0.00 | 34 | 1008.4 |
| 20260508003507 | 55 | 306 | 0.0 | 0.0 | 0.00 | 0.00 | 0.00 | 34 | 1008.4 |
| 20260508003008 | 55 | 306 | 0.0 | 1.7 | 0.00 | 0.00 | 0.00 | 31 | 1008.4 |
| 20260508002506 | 55 | 306 | 0.9 | 2.6 | 0.00 | 0.00 | 0.00 | 31 | 1008.4 |
| 20260508002006 | 55 | 306 | 0.9 | 1.7 | 0.00 | 0.00 | 0.00 | 33 | 1008.4 |
| 20260508001506 | 55 | 306 | 0.9 | 1.7 | 0.00 | 0.00 | 0.00 | 31 | 1008.5 |
| 20260508001006 | 55 | 306 | 0.0 | 1.7 | 0.00 | 0.00 | 0.00 | 31 | 1008.5 |
| 20260508000006 | 56 | 310 | 0.0 | 2.6 | 0.00 | 0.00 | 0.00 | 31 | 1008.5 |
| 20260507235506 | 56 | 302 | 0.9 | 1.7 | 0.00 | 0.00 | 0.00 | 30 | 1008.6 |
| 20260507235006 | 56 | 302 | 0.9 | 1.7 | 0.00 | 0.00 | 0.00 | 29 | 1008.7 |
| 20260507234006 | 56 | 302 | 0.0 | 2.6 | 0.00 | 0.00 | 0.00 | 31 | 1008.7 |
| 20260507233507 | 56 | 302 | 1.7 | 2.6 | 0.00 | 0.00 | 0.00 | 29 | 1008.7 |
| 20260507233006 | 56 | 302 | 1.7 | 2.6 | 0.00 | 0.00 | 0.00 | 29 | 1008.7 |
| 20260507232506 | 56 | 290 | 1.7 | 2.6 | 0.00 | 0.00 | 0.00 | 28 | 1008.6 |
| 20260507232006 | 56 | 311 | 0.9 | 2.6 | 0.00 | 0.00 | 0.00 | 29 | 1008.6 |
| 20260507231506 | 57 | 311 | 1.7 | 2.6 | 0.00 | 0.00 | 0.00 | 30 | 1008.6 |
| 20260507231007 | 57 | 311 | 1.7 | 6.1 | 0.00 | 0.00 | 0.00 | 30 | 1008.7 |
| 20260507230506 | 56 | 330 | 0.9 | 2.6 | 0.00 | 0.00 | 0.00 | 30 | 1008.7 |
| 20260507230006 | 56 | 330 | 1.7 | 2.6 | 0.00 | 0.00 | 0.00 | 29 | 1008.7 |
| 20260507225506 | 56 | 330 | 0.9 | 2.6 | 0.00 | 0.00 | 0.00 | 29 | 1008.8 |
| 20260507225007 | 56 | 330 | 1.7 | 7.0 | 0.00 | 0.00 | 0.00 | 29 | 1008.8 |
| 20260507224506 | 57 | 296 | 2.6 | 7.0 | 0.00 | 0.00 | 0.00 | 29 | 1008.8 |
| 20260507224007 | 56 | 306 | 2.6 | 6.1 | 0.00 | 0.00 | 0.00 | 31 | 1008.8 |
| 20260507223006 | 56 | 304 | 2.6 | 8.7 | 0.00 | 0.00 | 0.00 | 29 | 1008.9 |
| 20260507221506 | 56 | 297 | 1.7 | 7.0 | 0.00 | 0.00 | 0.00 | 29 | 1009.0 |
| 20260507221006 | 56 | 297 | 1.7 | 7.8 | 0.00 | 0.00 | 0.00 | 29 | 1008.9 |
| 20260507220006 | 56 | 295 | 3.5 | 7.8 | 0.00 | 0.00 | 0.00 | 29 | 1009.1 |
| 20260507215506 | 57 | 286 | 2.6 | 8.7 | 0.00 | 0.00 | 0.00 | 30 | 1009.1 |
| 20260507215006 | 57 | 283 | 1.7 | 7.0 | 0.00 | 0.00 | 0.00 | 29 | 1009.0 |
| 20260507214506 | 57 | 265 | 0.9 | 1.7 | 0.00 | 0.00 | 0.00 | 27 | 1008.9 |
| 20260507214006 | 57 | 313 | 1.7 | 5.2 | 0.00 | 0.00 | 0.00 | 30 | 1009.0 |
| 20260507213506 | 57 | 224 | 2.6 | 5.2 | 0.00 | 0.00 | 0.00 | 28 | 1009.0 |
| 20260507213006 | 57 | 309 | 1.7 | 7.0 | 0.00 | 0.00 | 0.00 | 29 | 1009.0 |
| 20260507212505 | 56 | 298 | 2.6 | 7.0 | 0.00 | 0.00 | 0.00 | 30 | 1009.0 |
| 20260507212006 | 57 | 313 | 1.7 | 7.0 | 0.00 | 0.00 | 0.00 | 28 | 1009.0 |
| 20260507211507 | 56 | 297 | 2.6 | 7.8 | 0.00 | 0.00 | 0.00 | 30 | 1009.0 |
| 20260507211006 | 56 | 347 | 1.7 | 4.3 | 0.00 | 0.00 | 0.00 | 29 | 1009.0 |
| 20260507210506 | 57 | 308 | 1.7 | 6.1 | 0.00 | 0.00 | 0.00 | 31 | 1009.1 |
| 20260507210006 | 57 | 293 | 2.6 | 7.0 | 0.00 | 0.00 | 0.00 | 32 | 1009.1 |
| 20260507205006 | 58 | 225 | 1.7 | 4.3 | 0.00 | 0.00 | 0.00 | 28 | 1009.1 |
| 20260507204506 | 57 | 218 | 1.7 | 5.2 | 0.00 | 0.00 | 0.00 | 31 | 1009.1 |
| 20260507204006 | 57 | 315 | 0.9 | 4.3 | 0.00 | 0.00 | 0.00 | 29 | 1009.2 |
| 20260507203506 | 57 | 312 | 1.7 | 4.3 | 0.00 | 0.00 | 0.00 | 30 | 1009.3 |
| 20260507203007 | 56 | 329 | 1.7 | 4.3 | 0.00 | 0.00 | 0.00 | 29 | 1009.3 |
| 20260507202006 | 56 | 329 | 1.7 | 6.1 | 0.00 | 0.00 | 0.00 | 29 | 1009.4 |
| 20260507201505 | 56 | 218 | 2.6 | 7.8 | 0.00 | 0.00 | 0.00 | 29 | 1009.5 |
| 20260507201007 | 57 | 303 | 1.7 | 4.3 | 0.00 | 0.00 | 0.00 | 30 | 1009.4 |
| 20260507200506 | 56 | 249 | 1.7 | 4.3 | 0.00 | 0.00 | 0.00 | 33 | 1009.4 |
| 20260507200006 | 56 | 286 | 1.7 | 7.8 | 0.00 | 0.00 | 0.00 | 30 | 1009.5 |
| 20260507195006 | 56 | 261 | 1.7 | 2.6 | 0.00 | 0.00 | 0.00 | 30 | 1009.6 |
| 20260507194506 | 56 | 302 | 2.6 | 6.1 | 0.00 | 0.00 | 0.00 | 31 | 1009.7 |
| 20260507194006 | 56 | 332 | 1.7 | 4.3 | 0.00 | 0.00 | 0.00 | 33 | 1009.7 |
| 20260507193506 | 56 | 311 | 1.7 | 2.6 | 0.00 | 0.00 | 0.00 | 35 | 1009.6 |
| 20260507193006 | 56 | 308 | 2.6 | 4.3 | 0.00 | 0.00 | 0.00 | 31 | 1009.7 |
| 20260507192506 | 56 | 292 | 2.6 | 6.1 | 0.00 | 0.00 | 0.00 | 32 | 1009.6 |
| 20260507192006 | 57 | 303 | 1.7 | 2.6 | 0.00 | 0.00 | 0.00 | 33 | 1009.6 |
| 20260507191505 | 57 | 217 | 1.7 | 5.2 | 0.00 | 0.00 | 0.00 | 31 | 1009.7 |
| 20260507191007 | 56 | 304 | 1.7 | 5.2 | 0.00 | 0.00 | 0.00 | 34 | 1009.7 |
| 20260507190506 | 56 | 333 | 1.7 | 7.0 | 0.00 | 0.00 | 0.00 | 31 | 1009.7 |
| 20260507190006 | 56 | 210 | 1.7 | 4.3 | 0.00 | 0.00 | 0.00 | 34 | 1009.9 |
| 20260507185506 | 56 | 288 | 1.7 | 2.6 | 0.00 | 0.00 | 0.00 | 34 | 1009.9 |
| 20260507185006 | 56 | 302 | 0.9 | 2.6 | 0.00 | 0.00 | 0.00 | 34 | 1009.9 |
| 20260507184505 | 55 | 303 | 0.9 | 6.1 | 0.00 | 0.00 | 0.00 | 36 | 1009.8 |
| 20260507184006 | 55 | 313 | 1.7 | 7.8 | 0.00 | 0.00 | 0.00 | 36 | 1009.9 |
| 20260507183506 | 55 | 300 | 2.6 | 7.8 | 0.00 | 0.00 | 0.00 | 36 | 1009.9 |
| 20260507183006 | 55 | 238 | 1.7 | 4.3 | 0.00 | 0.00 | 0.00 | 36 | 1010.0 |
| 20260507182506 | 55 | 310 | 1.7 | 7.0 | 0.00 | 0.00 | 0.00 | 35 | 1010.0 |
| 20260507182006 | 55 | 1 | 1.7 | 10.4 | 0.00 | 0.00 | 0.00 | 35 | 1010.1 |
| 20260507181006 | 55 | 302 | 1.7 | 6.1 | 0.00 | 0.00 | 0.00 | 36 | 1010.1 |
| 20260507180506 | 54 | 306 | 3.5 | 7.8 | 0.00 | 0.00 | 0.00 | 38 | 1010.2 |
| 20260507180005 | 54 | 297 | 2.6 | 4.3 | 0.00 | 0.00 | 0.00 | 37 | 1010.3 |
| 20260507175506 | 54 | 301 | 1.7 | 4.3 | 0.00 | 0.00 | 0.00 | 37 | 1010.3 |
| 20260507175006 | 54 | 246 | 1.7 | 7.0 | 0.00 | 0.00 | 0.00 | 35 | 1010.4 |
| 20260507174506 | 54 | 319 | 1.7 | 2.6 | 0.00 | 0.00 | 0.00 | 36 | 1010.5 |
| 20260507174006 | 54 | 323 | 1.7 | 2.6 | 0.00 | 0.00 | 0.00 | 35 | 1010.5 |
| 20260507173506 | 54 | 224 | 1.7 | 2.6 | 0.00 | 0.00 | 0.00 | 41 | 1010.5 |
| 20260507173006 | 53 | 309 | 0.9 | 2.6 | 0.00 | 0.00 | 0.00 | 39 | 1010.6 |
| 20260507172505 | 53 | 328 | 0.9 | 2.6 | 0.00 | 0.00 | 0.00 | 38 | 1010.6 |
| 20260507172006 | 53 | 325 | 1.7 | 4.3 | 0.00 | 0.00 | 0.00 | 39 | 1010.6 |
| 20260507170005 | 53 | 202 | 1.7 | 4.3 | 0.00 | 0.00 | 0.00 | 38 | 1010.8 |
| 20260507165505 | 53 | 344 | 0.9 | 2.6 | 0.00 | 0.00 | 0.00 | 42 | 1010.9 |
| 20260507165006 | 52 | 347 | 0.9 | 2.6 | 0.00 | 0.00 | 0.00 | 40 | 1011.0 |
| 20260507164506 | 52 | 314 | 1.7 | 4.3 | 0.00 | 0.00 | 0.00 | 42 | 1011.0 |
| 20260507164007 | 52 | 294 | 1.7 | 5.2 | 0.00 | 0.00 | 0.00 | 45 | 1011.0 |
| 20260507163506 | 52 | 296 | 1.7 | 4.3 | 0.00 | 0.00 | 0.00 | 42 | 1011.1 |
| 20260507163009 | 52 | 239 | 1.7 | 5.2 | 0.00 | 0.00 | 0.00 | 45 | 1011.0 |
| 20260507162506 | 52 | 348 | 1.7 | 5.2 | 0.00 | 0.00 | 0.00 | 45 | 1011.1 |